Simultaneous Nadir Overpasses (SNOs) Predictions

Prediction of SNOs between NOAA-19 and TERRA Satellite Orbit:

Table of predicted SNOs for the next 14.0 days since TLE Epoch: 11/11/2014
Index Date (NOAA-19) Time (NOAA-19) Lat,Lon (NOAA-19) SZA (NOAA-19 ) Date (TERRA) Time (TERRA) Lat,Lon (TERRA) SZA (TERRA ) Distance(km) Time Diff (sec)
1 11/11/2014 18:16:13 71.14, -91.74 88.69 11/11/2014 18:16:47 71.17, -91.74 88.72 3.49 34
2 11/11/2014 19:07:12 -71.02, 75.71 91.42 11/11/2014 19:06:17 -71.05, 75.70 91.40 3.28 55
3 11/13/2014 22:59:54 71.19,-162.71 89.32 11/13/2014 23:00:59 71.21,-162.74 89.35 2.86 65
4 11/13/2014 23:50:54 -71.09, 4.71 90.77 11/13/2014 23:50:29 -71.09, 4.71 90.77 0.58 25
5 11/16/2014 03:43:51 72.06, 124.76 90.71 11/16/2014 03:44:57 71.98, 127.50 90.72 94.36 66
6 11/16/2014 04:34:36 -71.16, -66.32 90.14 11/16/2014 04:34:40 -71.16, -66.23 90.14 2.96 4
7 11/16/2014 05:25:25 70.56, 101.97 89.31 11/16/2014 05:24:15 70.62, 100.57 89.31 52.17 70
8 11/18/2014 09:18:17 -71.20,-137.27 89.57 11/18/2014 09:18:51 -71.20,-137.22 89.57 1.96 34
9 11/18/2014 10:09:15 71.09, 30.17 90.34 11/18/2014 10:08:18 71.09, 30.26 90.33 3.07 57
10 11/20/2014 14:01:57 -71.20, 151.84 89.07 11/20/2014 14:03:02 -71.22, 151.76 89.05 3.58 65
11 11/20/2014 14:52:55 71.12, -40.76 90.87 11/20/2014 14:52:29 71.10, -40.77 90.85 1.47 26
12 11/22/2014 18:45:53 -72.02, 79.42 87.81 11/22/2014 18:47:00 -71.90, 81.86 87.85 85.20 67
13 11/22/2014 19:36:35 71.16,-111.71 91.38 11/22/2014 19:36:39 71.14,-111.75 91.37 1.81 4
14 11/22/2014 20:27:27 -70.53, 56.59 89.21 11/22/2014 20:26:17 -70.60, 55.04 89.20 58.05 70
15 11/25/2014 00:20:15 71.20, 177.32 91.87 11/25/2014 00:20:48 71.21, 177.32 91.88 1.09 33
16 11/25/2014 01:11:18 -71.12, -15.30 88.21 11/25/2014 01:10:18 -71.10, -15.23 88.23 3.10 60




NCC Satellite Simultaneous Nadir Overpasses (SNOs) Prediction Service
